Regional Weather Roundup
Issued by NWS

Home | Current Version | Previous Version | Text Only | Print | Product List | Glossary On
Versions: 1 2 3 4 5 6 7 8 9 10 11 12 13 14 15 16 17 18 19 20 21 22 23 24 25 26 27 28 29 30 31 32 33 34 35 36 37 38 39 40 41 42 43 44 45 46 47 48 49 50
813
ASUS43 KLSX 260807
RWRMO

WEATHER SUMMARY FOR MISSOURI
NATIONAL WEATHER SERVICE SPRINGFIELD MO
300 AM CDT THU MAY 26 2016

NOTE: "FAIR" INDICATES FEW OR NO CLOUDS BELOW 12,000 FEET WITH NO
       SIGNIFICANT WEATHER AND/OR OBSTRUCTIONS TO VISIBILITY.
       CURRENT SKY AND/OR WEATHER CONDITIONS ARE NOT AVAILABLE FOR
       CHILLICOTHE AND FARMINGTON.

MOZ001>031-035>038-043-044-053-054-260900-
...NORTHERN AND WESTERN MISSOURI...

CITY           SKY/WX    TMP DP  RH WIND       PRES   REMARKS
KANSAS CTY INT CLOUDY    71  58  63 SW3       29.83F
KANSAS C DTWN  CLOUDY    75  55  49 VRB6      29.82F
LEE`S SUMMIT   CLOUDY    71  56  58 S22G28    29.84F
ST JOSEPH      CLOUDY    66  63  90 CALM      29.82F
CHILLICOTHE      N/A     73  69  87 CALM      29.83F
KIRKSVILLE     CLOUDY    71  66  84 CALM      29.87F

$$
MOZ066>068-077>081-088>096-101>105-260900-
...SOUTHWEST MISSOURI...

CITY           SKY/WX    TMP DP  RH WIND       PRES   REMARKS
SPRINGFIELD    CLOUDY    72  68  87 S14       29.92F
JOPLIN         CLOUDY    76  71  85 S10G20    29.90F

$$
MOZ032>034-039>042-045>050-055>058-069>072-260900-
...CENTRAL MISSOURI...

CITY           SKY/WX    TMP DP  RH WIND       PRES   REMARKS
COLUMBIA       PTCLDY    71  68  90 S10       29.91F
JEFFERSON CITY CLOUDY    72  68  87 SE6       29.91F
ROLLA          CLOUDY    72  69  90 S12       29.95S
SEDALIA        PTCLDY    72  68  87 S9        29.92R
WHITEMAN AFB   MOCLDY    72  72 100 VRB7      29.90R
WARRENSBURG    TSTM      64  59  82 NW6G18    29.92R

$$
MOZ051-052-059>065-260900-
...EAST CENTRAL MISSOURI...

CITY           SKY/WX    TMP DP  RH WIND       PRES   REMARKS
ST LOUIS INTL  PTCLDY    73  67  81 S8        29.95F
SPIRIT OF STL  PTCLDY    70  68  93 SW3       29.93F
ST CHARLES     PTCLDY    70  67  90 SE6       29.94S

$$
MOZ072>076-082>087-097>100-106>115-260900-
...SOUTH CENTRAL AND SOUTHEAST MISSOURI...

CITY           SKY/WX    TMP DP  RH WIND       PRES   REMARKS
CAPE GIRARDEAU CLOUDY    67  63  87 S5        30.01F
FARMINGTON     MOCLDY    66  65  96 SW5       30.00F
POPLAR BLUFF   PTCLDY    66  65  96 CALM      30.00F
WEST PLAINS    CLOUDY    71  68  90 S8        30.00F

$$



USA.gov is the U.S. government's official web portal to all federal, state and local government web resources and services.